Change the Weather History Date:

Sunday, January 6, 2013

  Actual Average (KEKA) Record (KEKA)
Temperature  
Mean Temperature 44 °F 48 °F  
Max Temperature 50 °F 55 °F 69 °F (1958)
Min Temperature 39 °F 41 °F 27 °F (1888)
Degree Days  
Heating Degree Days 20 17  
Month to date heating degree days 102  
Since 1 July heating degree days 2057  
Cooling Degree Days 0 0  
Month to date cooling degree days 0  
Year to date cooling degree days 0  
Moisture  
Dew Point 44 °F    
Average Humidity 96    
Maximum Humidity 100    
Minimum Humidity 82    
Precipitation  
Precipitation 0.00 in 0.22 in 2.11 in (1964)
Month to date precipitation 1.35  
Year to date precipitation 1.35  
Since 1 July precipitation 18.40  
Snow  
Snow 0.00 in 0.00 in 0.00 in (2002)
Month to date snowfall 0.0  
Since 1 July snowfall T  
Snow Depth -    
Sea Level Pressure  
Sea Level Pressure 30.22 in    
Wind  
Wind Speed 2 mph (NW)    
Max Wind Speed 10 mph    
Max Gust Speed -    
Visibility 9 miles    
Events      
T = Trace of Precipitation, MM = Missing Value Source: NWS Daily Summary

Daily Weather History Graph

Daily Weather History Graph

Search for Another Location

Airport or City:

Trip Planner

Search our weather history database for the weather conditions in past years. The results will help you decide how hot, cold, wet, or windy it might be!

Date:

Astronomy

Jan. 06, 2013 Rise Set
Actual Time 7:40 AM PST 5:05 PM PST
Civil Twilight 7:09 AM PST 5:35 PM PST
Nautical Twilight 6:35 AM PST 6:09 PM PST
Astronomical Twilight 6:02 AM PST 6:42 PM PST
Moon 2:00 AM PST (1/6) 12:36 PM PST (1/6)
Length of Visible Light 10h 26m
Length of Day
9h 25m
Waning Crescent, 32% of the Moon is Illuminated
Jan 6
Waning Crescent
Jan 11
New
Jan 18
First Quarter
Jan 26
Full
Feb 3
Last Quarter

Hourly Weather History & Observations

Time (PST) Temp. Windchill Dew Point Humidity Pressure Visibility Wind Dir Wind Speed Gust Speed Precip Events Conditions
12:15 AM 42.8 °F - 42.8 °F 100% 30.17 in 0.2 mi Calm Calm - N/A   Overcast
12:35 AM 44.6 °F - 44.6 °F 100% 30.17 in 10.0 mi Calm Calm - N/A   Overcast
12:55 AM 44.6 °F - 44.6 °F 100% 30.16 in 10.0 mi Calm Calm - N/A   Overcast
1:15 AM 44.6 °F 41.4 °F 44.6 °F 100% 30.15 in 10.0 mi WNW 5.8 mph - N/A   Overcast
1:35 AM 42.8 °F - 42.8 °F 100% 30.15 in 2.5 mi Calm Calm - N/A   Overcast
1:55 AM 44.6 °F - 44.6 °F 100% 30.16 in 10.0 mi Calm Calm - N/A   Overcast
2:15 AM 44.6 °F - 44.6 °F 100% 30.17 in 10.0 mi Calm Calm - N/A   Overcast
2:35 AM 44.6 °F - 44.6 °F 100% 30.18 in 10.0 mi Calm Calm - N/A   Overcast
2:55 AM 44.6 °F 41.4 °F 44.6 °F 100% 30.18 in 10.0 mi WNW 5.8 mph - N/A   Overcast
3:15 AM 44.6 °F - 44.6 °F 100% 30.18 in 10.0 mi Calm Calm - N/A   Overcast
3:35 AM 44.6 °F - 44.6 °F 100% 30.18 in 10.0 mi Calm Calm - N/A   Overcast
3:55 AM 44.6 °F 40.2 °F 44.6 °F 100% 30.19 in 10.0 mi WNW 8.1 mph - N/A   Overcast
4:15 AM 44.6 °F 40.7 °F 44.6 °F 100% 30.19 in 10.0 mi WNW 6.9 mph - N/A   Overcast
4:35 AM 44.6 °F - 44.6 °F 100% 30.19 in 10.0 mi Calm Calm - N/A   Overcast
4:55 AM 44.6 °F - 44.6 °F 100% 30.19 in 10.0 mi Calm Calm - N/A   Overcast
5:15 AM 44.6 °F - 44.6 °F 100% 30.19 in 10.0 mi Calm Calm - N/A   Overcast
5:35 AM 42.8 °F - 42.8 °F 100% 30.19 in 10.0 mi Calm Calm - N/A   Overcast
5:55 AM 42.8 °F - 42.8 °F 100% 30.19 in 10.0 mi Calm Calm - N/A   Mostly Cloudy
6:15 AM 42.8 °F - 42.8 °F 100% 30.19 in 10.0 mi Calm Calm - N/A   Partly Cloudy
6:35 AM 42.8 °F - 42.8 °F 100% 30.19 in 9.0 mi Calm Calm - N/A   Clear
6:55 AM 42.8 °F - 42.8 °F 100% 30.20 in 10.0 mi Calm Calm - N/A   Clear
7:15 AM 42.8 °F - 42.8 °F 100% 30.20 in 8.0 mi Calm Calm - N/A   Partly Cloudy
7:35 AM 41.0 °F - 41.0 °F 100% 30.21 in 1.0 mi Calm Calm - N/A   Scattered Clouds
8:15 AM 41.0 °F - 41.0 °F 100% 30.23 in 10.0 mi Calm Calm - N/A   Clear
8:35 AM 41.0 °F - 41.0 °F 100% 30.24 in 10.0 mi Calm Calm - N/A   Clear
8:55 AM 41.0 °F - 41.0 °F 100% 30.24 in 0.8 mi Calm Calm - N/A   Unknown
9:15 AM 41.0 °F - 41.0 °F 100% 30.23 in 10.0 mi Calm Calm - N/A   Clear
9:35 AM 42.8 °F - 42.8 °F 100% 30.24 in 10.0 mi Calm Calm - N/A   Clear
9:55 AM 44.6 °F - 44.6 °F 100% 30.25 in 10.0 mi Calm Calm - N/A   Mostly Cloudy
10:15 AM 46.4 °F - 46.4 °F 100% 30.25 in 10.0 mi Calm Calm - N/A   Mostly Cloudy
10:35 AM 46.4 °F - 46.4 °F 100% 30.25 in 10.0 mi Calm Calm - N/A   Mostly Cloudy
10:55 AM 48.2 °F - 46.4 °F 93% 30.24 in 10.0 mi Calm Calm - N/A   Mostly Cloudy
11:15 AM 48.2 °F - 46.4 °F 93% 30.24 in 10.0 mi WNW 6.9 mph - N/A   Overcast
11:35 AM 48.2 °F - 46.4 °F 93% 30.22 in 10.0 mi Calm Calm - N/A   Overcast
11:55 AM 48.2 °F - 46.4 °F 93% 30.21 in 10.0 mi Calm Calm - N/A   Mostly Cloudy
12:15 PM 50.0 °F - 46.4 °F 87% 30.21 in 10.0 mi WNW 9.2 mph - N/A   Mostly Cloudy
12:35 PM 48.2 °F - 46.4 °F 93% 30.22 in 10.0 mi West 8.1 mph - N/A   Overcast
12:55 PM 48.2 °F - 46.4 °F 93% 30.22 in 10.0 mi WNW 9.2 mph - N/A   Overcast
1:15 PM 48.2 °F - 44.6 °F 87% 30.21 in 10.0 mi NNW 9.2 mph - N/A   Overcast
1:35 PM 48.2 °F - 44.6 °F 87% 30.21 in 10.0 mi NNW 10.4 mph - N/A   Overcast
1:55 PM 48.2 °F - 44.6 °F 87% 30.21 in 10.0 mi NW 8.1 mph - N/A   Overcast
2:15 PM 48.2 °F - 44.6 °F 87% 30.22 in 10.0 mi NW 8.1 mph - N/A   Overcast
2:35 PM 48.2 °F - 44.6 °F 87% 30.22 in 10.0 mi WNW 10.4 mph - N/A   Overcast
2:55 PM 48.2 °F - 44.6 °F 87% 30.23 in 10.0 mi NW 10.4 mph - N/A   Overcast
3:15 PM 48.2 °F - 44.6 °F 87% 30.23 in 10.0 mi NNW 9.2 mph - N/A   Overcast
3:35 PM 48.2 °F - 44.6 °F 87% 30.23 in 10.0 mi NNW 8.1 mph - N/A   Overcast
3:55 PM 48.2 °F - 44.6 °F 87% 30.21 in 10.0 mi Calm Calm - N/A   Overcast
4:15 PM 48.2 °F - 44.6 °F 87% 30.22 in 10.0 mi Calm Calm - N/A   Overcast
4:35 PM 48.2 °F - 42.8 °F 82% 30.21 in 10.0 mi Calm Calm - N/A   Overcast
4:55 PM 46.4 °F - 42.8 °F 87% 30.21 in 10.0 mi Calm Calm - N/A   Mostly Cloudy
5:15 PM 46.4 °F - 42.8 °F 87% 30.22 in 10.0 mi Calm Calm - N/A   Partly Cloudy
5:35 PM 44.6 °F - 41.0 °F 87% 30.23 in 10.0 mi Calm Calm - N/A   Partly Cloudy
5:55 PM 44.6 °F - 42.8 °F 93% 30.23 in 10.0 mi Calm Calm - N/A   Clear
6:15 PM 42.8 °F - 42.8 °F 100% 30.23 in 10.0 mi Calm Calm - N/A   Clear
6:35 PM 42.8 °F 41.1 °F 42.8 °F 100% 30.24 in 10.0 mi WSW 3.5 mph - N/A   Partly Cloudy
6:55 PM 42.8 °F - 42.8 °F 100% 30.25 in 10.0 mi Calm Calm - N/A   Mostly Cloudy
7:15 PM 44.6 °F - 44.6 °F 100% 30.26 in 10.0 mi Calm Calm - N/A   Scattered Clouds
7:35 PM 42.8 °F - 42.8 °F 100% 30.26 in 10.0 mi Calm Calm - N/A   Clear
7:55 PM 42.8 °F - 42.8 °F 100% 30.24 in 10.0 mi Calm Calm - N/A   Clear
8:15 PM 42.8 °F - 42.8 °F 100% 30.24 in 10.0 mi Calm Calm - N/A   Clear
8:55 PM 42.8 °F - 42.8 °F 100% 30.25 in 10.0 mi Calm Calm - N/A   Clear
9:15 PM 41.0 °F - 41.0 °F 100% 30.25 in 10.0 mi Calm Calm - N/A   Partly Cloudy
9:55 PM 39.2 °F - 39.2 °F 100% 30.25 in 1.5 mi Calm Calm - N/A   Overcast
10:15 PM 41.0 °F - 41.0 °F 100% 30.26 in 9.0 mi Calm Calm - N/A   Overcast
10:35 PM 41.0 °F - 41.0 °F 100% 30.26 in 9.0 mi Calm Calm - N/A   Overcast
10:55 PM 41.0 °F - 41.0 °F 100% 30.26 in 10.0 mi Calm Calm - N/A   Overcast
11:15 PM 41.0 °F - 41.0 °F 100% 30.25 in 10.0 mi Calm Calm - N/A   Overcast
11:35 PM 41.0 °F - 41.0 °F 100% 30.25 in 10.0 mi Calm Calm - N/A   Overcast
11:55 PM 41.0 °F 36.4 °F 41.0 °F 100% 30.25 in 10.0 mi ESE 6.9 mph - N/A   Overcast